Weather History for Stevensville, MD

Change the Weather History Date:

Wednesday, February 19, 2014

  Actual Average (KESN) Record (KESN)
Temperature  
Mean Temperature 7 °C -  
Max Temperature 14 °C 10 °C 22 °C (1961)
Min Temperature 0 °C -1 °C -11 °C (1958)
Degree Days  
Heating Degree Days 20    
Moisture  
Dew Point 2 °C    
Average Humidity 74    
Maximum Humidity 100    
Minimum Humidity 43    
Precipitation  
Precipitation 0.00 mm - - ()
Sea Level Pressure  
Sea Level Pressure 1013 hPa    
Wind  
Wind Speed 10 km/h (SSW)    
Max Wind Speed 29 km/h    
Max Gust Speed 48 km/h    
Visibility 15 kilometers    
Events Rain    
Averages and records for this station are not official NWS values.
T = Trace of Precipitation, MM = Missing Value Source: NWS Daily Summary

Daily Weather History Graph

Daily Weather History Graph

Search for Another Location

Airport:

Trip Planner

Search our weather history database for the weather conditions in past years. The results will help you decide how hot, cold, wet, or windy it might be!

Date:

Astronomy

Feb. 19, 2014 Rise Set
Actual Time 6:51 AM EST 5:47 PM EST
Civil Twilight 6:24 AM EST 6:14 PM EST
Nautical Twilight 5:53 AM EST 6:45 PM EST
Astronomical Twilight 5:22 AM EST 7:16 PM EST
Moon 10:35 PM EST (2/19) 8:58 AM EST (2/19)
Length of Visible Light 11h 49m
Length of Day
10h 55m
Waning Gibbous, 80% of the Moon is Illuminated
Feb 19
Waning Gibbous
Feb 22
Last Quarter
Mar 1
New
Mar 8
First Quarter
Mar 16
Full

Hourly Weather History & Observations

Time (EST) Temp. Windchill Dew Point Humidity Pressure Visibility Wind Dir Wind Speed Gust Speed Precip Events Conditions
12:16 AM 1.0 °C -0.7 °C -2.0 °C 81% 1018.2 hPa 16.1 km ESE 5.6 km/h / 1.5 m/s - N/A   Clear
12:36 AM 1.0 °C - -2.0 °C 81% 1018.5 hPa 16.1 km Calm Calm - N/A   Clear
12:56 AM 1.0 °C - -2.0 °C 81% 1018.5 hPa 16.1 km Calm Calm - N/A   Clear
1:17 AM 1.0 °C - -2.0 °C 81% 1018.2 hPa 16.1 km Calm Calm - N/A   Clear
1:37 AM 0.0 °C -1.8 °C -2.0 °C 87% 1018.2 hPa 16.1 km ESE 5.6 km/h / 1.5 m/s - N/A   Clear
1:57 AM 0.0 °C - -2.0 °C 87% 1017.8 hPa 16.1 km Calm Calm - N/A   Clear
2:17 AM 0.0 °C - -2.0 °C 87% 1017.5 hPa 16.1 km Calm Calm - N/A   Clear
2:37 AM 0.0 °C -2.5 °C -2.0 °C 87% 1017.5 hPa 16.1 km SSE 7.4 km/h / 2.1 m/s - N/A   Clear
2:57 AM 1.0 °C -1.4 °C -2.0 °C 81% 1016.8 hPa 16.1 km SSE 7.4 km/h / 2.1 m/s - N/A   Clear
3:17 AM 1.0 °C -1.9 °C -2.0 °C 81% 1016.5 hPa 16.1 km SSE 9.3 km/h / 2.6 m/s - N/A   Clear
3:37 AM 2.0 °C -0.7 °C -2.0 °C 75% 1015.8 hPa 16.1 km SSE 9.3 km/h / 2.6 m/s - N/A   Clear
3:57 AM 2.0 °C -0.7 °C -2.0 °C 75% 1015.1 hPa 16.1 km SE 9.3 km/h / 2.6 m/s - N/A   Clear
4:17 AM 3.0 °C -0.3 °C -2.0 °C 70% 1014.4 hPa 16.1 km SSE 13.0 km/h / 3.6 m/s - N/A   Clear
4:37 AM 3.0 °C 0.0 °C -3.0 °C 65% 1014.1 hPa 16.1 km SE 11.1 km/h / 3.1 m/s - N/A   Clear
4:57 AM 3.0 °C 0.5 °C -2.0 °C 70% 1014.1 hPa 16.1 km SSE 9.3 km/h / 2.6 m/s - N/A   Clear
5:17 AM 3.0 °C 0.0 °C -2.0 °C 70% 1013.4 hPa 16.1 km SSE 11.1 km/h / 3.1 m/s - N/A   Clear
5:37 AM 5.0 °C 1.5 °C -3.0 °C 57% 1013.1 hPa 16.1 km SSE 16.7 km/h / 4.6 m/s - N/A   Clear
5:57 AM 4.0 °C 0.9 °C -2.0 °C 65% 1012.8 hPa 16.1 km SSE 13.0 km/h / 3.6 m/s - N/A   Clear
6:17 AM 5.0 °C 2.1 °C -2.0 °C 61% 1012.8 hPa 16.1 km SSE 13.0 km/h / 3.6 m/s - N/A   Scattered Clouds
6:37 AM 6.0 °C 3.3 °C -2.0 °C 57% 1012.4 hPa 16.1 km SSE 13.0 km/h / 3.6 m/s - N/A   Clear
6:57 AM 6.0 °C 3.0 °C -2.0 °C 57% 1012.4 hPa 16.1 km SSE 14.8 km/h / 4.1 m/s - N/A   Scattered Clouds
7:17 AM 5.0 °C 1.8 °C -1.0 °C 65% 1012.1 hPa 16.1 km SSE 14.8 km/h / 4.1 m/s - N/A   Scattered Clouds
7:37 AM 5.0 °C 2.1 °C 0.0 °C 70% 1012.1 hPa 16.1 km SSE 13.0 km/h / 3.6 m/s - N/A Rain Light Rain
7:57 AM 6.0 °C 3.0 °C 0.0 °C 66% 1011.7 hPa 16.1 km SSE 14.8 km/h / 4.1 m/s - N/A   Scattered Clouds
8:17 AM 6.0 °C 2.8 °C 1.0 °C 70% 1011.1 hPa 16.1 km SSE 16.7 km/h / 4.6 m/s - N/A Rain Light Rain
8:37 AM 6.0 °C 2.5 °C 1.0 °C 70% 1010.7 hPa 16.1 km SSE 18.5 km/h / 5.1 m/s - N/A Rain Light Rain
8:57 AM 7.0 °C 3.2 °C 1.0 °C 66% 1010.0 hPa 16.1 km SSE 24.1 km/h / 6.7 m/s - N/A   Scattered Clouds
9:17 AM 8.0 °C 4.0 °C 1.0 °C 62% 1009.7 hPa 16.1 km South 29.6 km/h / 8.2 m/s 37.0 km/h / 10.3 m/s N/A   Scattered Clouds
9:31 AM 8.0 °C 5.0 °C 3.0 °C 71% 1010.4 hPa 16.1 km South 18.5 km/h / 5.1 m/s 37.0 km/h / 10.3 m/s N/A Rain Light Rain
9:58 AM 8.0 °C 5.3 °C 6.0 °C 87% 1010.7 hPa 16.1 km South 16.7 km/h / 4.6 m/s 27.8 km/h / 7.7 m/s N/A Rain Rain
10:18 AM 7.0 °C 4.3 °C 6.0 °C 93% 1010.4 hPa 11.3 km South 14.8 km/h / 4.1 m/s - N/A Rain Rain
10:38 AM 7.0 °C 5.7 °C 7.0 °C 100% 1010.4 hPa 11.3 km South 7.4 km/h / 2.1 m/s - N/A Rain Light Rain
10:58 AM 7.0 °C 5.7 °C 7.0 °C 100% 1010.0 hPa 8.0 km South 7.4 km/h / 2.1 m/s - N/A Rain Rain
11:18 AM 7.0 °C 5.2 °C 7.0 °C 100% 1009.4 hPa 6.4 km SSE 9.3 km/h / 2.6 m/s - N/A Rain Light Rain
11:38 AM 7.0 °C 5.7 °C 7.0 °C 100% 1009.0 hPa 6.4 km SSE 7.4 km/h / 2.1 m/s - N/A Rain Light Rain
11:58 AM 7.0 °C 5.7 °C 7.0 °C 100% 1008.4 hPa 6.4 km SE 7.4 km/h / 2.1 m/s - N/A   Overcast
12:18 PM 7.0 °C 5.2 °C 7.0 °C 100% 1007.7 hPa 8.0 km SSE 9.3 km/h / 2.6 m/s - N/A   Overcast
12:38 PM 8.0 °C 5.8 °C 8.0 °C 100% 1007.7 hPa 11.3 km SSW 13.0 km/h / 3.6 m/s - N/A   Overcast
12:58 PM 10.0 °C - 10.0 °C 100% 1007.3 hPa 16.1 km SW 14.8 km/h / 4.1 m/s - N/A   Overcast
1:18 PM 11.0 °C - 10.0 °C 94% 1007.3 hPa 16.1 km SW 16.7 km/h / 4.6 m/s - N/A   Overcast
1:38 PM 11.0 °C - 10.0 °C 94% 1007.0 hPa 16.1 km SW 18.5 km/h / 5.1 m/s 27.8 km/h / 7.7 m/s N/A   Mostly Cloudy
1:58 PM 12.0 °C - 10.0 °C 88% 1006.3 hPa 16.1 km SW 14.8 km/h / 4.1 m/s - N/A   Scattered Clouds
2:18 PM 12.0 °C - 9.0 °C 82% 1006.3 hPa 16.1 km SW 11.1 km/h / 3.1 m/s - N/A   Clear
2:38 PM 13.0 °C - 9.0 °C 77% 1006.0 hPa 16.1 km SW 11.1 km/h / 3.1 m/s - N/A   Clear
2:58 PM 13.0 °C - 9.0 °C 77% 1006.3 hPa 16.1 km SW 14.8 km/h / 4.1 m/s - N/A   Clear
3:18 PM 14.0 °C - 9.0 °C 72% 1006.3 hPa 16.1 km SW 13.0 km/h / 3.6 m/s - N/A   Clear
3:38 PM 14.0 °C - 9.0 °C 72% 1006.3 hPa 16.1 km SW 13.0 km/h / 3.6 m/s - N/A   Clear
3:58 PM 13.0 °C - 8.0 °C 72% 1006.7 hPa 16.1 km SW 9.3 km/h / 2.6 m/s - N/A   Clear
4:18 PM 13.0 °C - 9.0 °C 77% 1007.0 hPa 16.1 km SW 13.0 km/h / 3.6 m/s - N/A   Light Drizzle
4:38 PM 7.0 °C 4.3 °C 6.0 °C 93% 1008.7 hPa 8.0 km North 14.8 km/h / 4.1 m/s - N/A Rain Rain
4:58 PM 8.0 °C 6.4 °C 8.0 °C 100% 1009.4 hPa 11.3 km NNE 9.3 km/h / 2.6 m/s - N/A   Mostly Cloudy
5:18 PM 6.0 °C - 5.0 °C 93% 1009.7 hPa 6.4 km Calm Calm - N/A   Scattered Clouds
5:38 PM 6.0 °C - 5.0 °C 93% 1010.4 hPa 6.4 km Calm Calm - N/A   Scattered Clouds
5:58 PM 5.0 °C - 5.0 °C 100% 1010.7 hPa 6.4 km Calm Calm - N/A   Clear
6:18 PM 5.0 °C - 5.0 °C 100% 1011.4 hPa 8.0 km Calm Calm - N/A   Mist
6:39 PM 8.0 °C 5.3 °C 5.0 °C 81% 1012.1 hPa 16.1 km WNW 16.7 km/h / 4.6 m/s - N/A   Clear
6:59 PM 11.0 °C - 0.0 °C 47% 1012.8 hPa 16.1 km WNW 24.1 km/h / 6.7 m/s - N/A   Clear
7:19 PM 11.0 °C - -1.0 °C 44% 1013.4 hPa 16.1 km WNW 24.1 km/h / 6.7 m/s 35.2 km/h / 9.8 m/s N/A   Clear
7:39 PM 11.0 °C - -1.0 °C 44% 1014.1 hPa 16.1 km WNW 24.1 km/h / 6.7 m/s 42.6 km/h / 11.8 m/s N/A   Clear
7:59 PM 10.0 °C - -2.0 °C 43% 1014.8 hPa 16.1 km West 25.9 km/h / 7.2 m/s 33.3 km/h / 9.3 m/s N/A   Clear
8:19 PM 10.0 °C - -1.0 °C 47% 1015.5 hPa 16.1 km WNW 22.2 km/h / 6.2 m/s - N/A   Clear
8:39 PM 10.0 °C - -2.0 °C 43% 1016.5 hPa 16.1 km WNW 11.1 km/h / 3.1 m/s - N/A   Clear
8:59 PM 10.0 °C - -2.0 °C 43% 1017.5 hPa 16.1 km WNW 24.1 km/h / 6.7 m/s 31.5 km/h / 8.7 m/s N/A   Clear
9:19 PM 10.0 °C - -1.0 °C 47% 1018.2 hPa 16.1 km WNW 22.2 km/h / 6.2 m/s 33.3 km/h / 9.3 m/s N/A   Clear
9:39 PM 10.0 °C - -1.0 °C 47% 1018.5 hPa 16.1 km WNW 27.8 km/h / 7.7 m/s 48.2 km/h / 13.4 m/s N/A   Clear
9:59 PM 9.0 °C - -1.0 °C 50% 1019.2 hPa 16.1 km WNW 25.9 km/h / 7.2 m/s 37.0 km/h / 10.3 m/s N/A   Clear
10:19 PM 9.0 °C - -1.0 °C 50% 1019.5 hPa 16.1 km WNW 22.2 km/h / 6.2 m/s 35.2 km/h / 9.8 m/s N/A   Clear
10:39 PM 8.0 °C 4.8 °C -1.0 °C 53% 1019.5 hPa 16.1 km WNW 20.4 km/h / 5.7 m/s 33.3 km/h / 9.3 m/s N/A   Clear
10:59 PM 7.0 °C 5.2 °C -1.0 °C 57% 1020.2 hPa 16.1 km West 9.3 km/h / 2.6 m/s - N/A   Clear
11:19 PM 6.0 °C 3.7 °C 0.0 °C 66% 1020.5 hPa 16.1 km West 11.1 km/h / 3.1 m/s - N/A   Clear
11:39 PM 6.0 °C 3.0 °C -1.0 °C 61% 1020.5 hPa 16.1 km NW 14.8 km/h / 4.1 m/s - N/A   Clear
11:59 PM 7.0 °C 6.2 °C -1.0 °C 57% 1020.9 hPa 16.1 km NW 5.6 km/h / 1.5 m/s - N/A   Clear